Location: Maddington
(51.2000°N, 1.9167°W)
Time: 14:47:59
(UTC+00:00)

Cosmos 1125 Rocket - Pass Details

Date: 20 June 2021
Orbit: 757 x 780 km, 74.0° (Epoch: 28 July)

Event Time Altitude Azimuth Distance (km) Brightness Sun altitude
Rises 02:44:14 0° 333° (NNW) 3,245 7.1 -8.0°
Reaches altitude 10° 02:46:38 10° 330° (NNW) 2,317 6.3 -7.7°
Maximum altitude 02:51:48 60° 251° (WSW) 881 3.6 -7.3°
Drops below altitude 10° 02:56:58 10° 173° (S) 2,316 5.6 -6.8°
Sets 02:59:22 0° 169° (S) 3,242 6.4 -6.5°
